Date String (YYYY-MM-DD hh:mm:ss) UTC,Instrument flags,absolute air pressure of the measurement (hPa),sample flow rate (lpm),inlet stack bypass flow (lpm),air temperature of the measurement (°C),ambient temperature measured by the external sensor (°C),aerosol sample conditioner tube jacket temperature (°C),OPC LED temperature (°C),internal box temperature (°C),relative humidity of the measurement (%),span deviation,mass concentration of particles derived from Lorenz-Mie calculation of OPC scattering (μg/m³),mass concentration of particles derived from Lorenz-Mie calculation of OPC scattering (μg/m³),mass concentration of particles derived from Lorenz-Mie calculation of OPC scattering (μg/m³)
DateTimeUTC,F1_M11,P_M11,Q1_M11,Q2_M11,T1_M11,T2_M11,T3_M11,T4_M11,T5_M11,U1_M11,ZSPAN_M11,X0_M11,X2_M11,X1_M11
2023-08-26 18:00:00,SystemResetWarning,0839.2,4.99,000.00,030.4,025.7,000.0,038.5,030.6,34.3,-000.2,0014.36,0010.00,0009.39
2023-08-26 18:01:00,SystemResetWarning,0839.2,5.01,000.00,030.3,024.6,000.0,038.3,030.4,33.7,-000.2,0014.22,0009.96,0009.37
2023-08-26 18:02:00,SystemResetWarning,0839.2,5.01,000.00,030.2,024.5,000.0,038.3,030.1,34.0,-000.0,0014.05,0009.88,0009.30
2023-08-26 18:03:00,SystemResetWarning,0839.2,5.00,000.00,030.0,024.8,000.0,038.3,030.0,34.8,-000.1,0013.84,0009.76,0009.22
2023-08-26 18:04:00,SystemResetWarning,0839.2,4.99,000.00,029.9,025.2,000.0,038.3,030.1,35.1,-000.2,0013.75,0009.69,0009.19
2023-08-26 18:05:00,SystemResetWarning,0839.2,5.02,000.00,029.9,025.6,000.0,038.3,030.2,34.7,-000.2,0013.77,0009.68,0009.15
2023-08-26 18:06:00,SystemResetWarning,0839.2,4.98,000.00,029.9,026.0,000.0,038.3,030.3,34.6,-000.2,0013.96,0009.61,0009.09
2023-08-26 18:07:00,SystemResetWarning,0839.2,5.02,000.00,029.9,026.3,000.0,038.3,030.4,34.5,-000.1,0014.22,0009.61,0009.07
2023-08-26 18:08:00,SystemResetWarning,0839.2,4.98,000.00,029.9,026.5,000.0,038.3,030.4,34.5,0000.2,0014.25,0009.55,0009.02
2023-08-26 18:09:00,SystemResetWarning,0839.2,5.00,000.00,029.9,026.8,000.0,038.2,030.5,33.7,0000.2,0014.23,0009.53,0009.00
2023-08-26 18:10:00,SystemResetWarning,0839.2,5.01,000.00,029.9,027.0,000.0,038.3,030.5,33.7,0000.1,0014.01,0009.54,0008.99
2023-08-26 18:11:00,SystemResetWarning,0839.1,5.01,000.00,029.9,027.1,000.0,038.3,030.5,33.7,0000.1,0013.64,0009.51,0008.97
2023-08-26 18:12:00,SystemResetWarning,0839.2,4.99,000.00,029.9,027.3,000.0,038.3,030.6,33.8,0000.2,0013.64,0009.56,0008.98
2023-08-26 18:13:00,SystemResetWarning,0839.1,5.00,000.00,029.9,027.4,000.0,038.3,030.6,34.0,0000.1,0013.64,0009.60,0008.99
2023-08-26 18:14:00,SystemResetWarning,0839.1,5.00,000.00,029.9,027.5,000.0,038.3,030.7,34.2,0000.2,0013.73,0009.67,0009.04
2023-08-26 18:15:00,SystemResetWarning,0839.1,5.00,000.00,029.9,027.6,000.0,038.3,030.7,34.0,0000.3,0013.81,0009.68,0009.02
2023-08-26 18:16:00,SystemResetWarning,0839.2,5.00,000.00,029.9,027.3,000.0,038.2,030.7,33.7,0000.1,0013.87,0009.66,0009.01
2023-08-26 18:17:00,SystemResetWarning,0839.1,4.98,000.00,029.9,025.7,000.0,038.1,030.4,34.0,0000.3,0013.57,0009.65,0009.01
2023-08-26 18:18:00,SystemResetWarning,0839.1,5.01,000.00,029.8,024.5,000.0,037.9,030.1,33.9,0000.3,0013.32,0009.67,0009.04
2023-08-26 18:19:00,SystemResetWarning,0839.1,5.00,000.00,029.7,024.4,000.0,037.9,029.9,34.2,0000.2,0013.33,0009.72,0009.08
2023-08-26 18:20:00,SystemResetWarning,0839.0,4.99,000.00,029.5,024.6,000.0,037.9,029.8,35.0,-000.1,0013.26,0009.66,0009.05
2023-08-26 18:21:00,SystemResetWarning,0839.1,5.03,000.00,029.5,025.1,000.0,037.9,030.0,34.3,-000.2,0013.20,0009.61,0009.01
2023-08-26 18:22:00,SystemResetWarning,0839.1,4.97,000.00,029.5,025.5,000.0,037.9,030.1,34.2,-000.1,0013.34,0009.63,0008.99
2023-08-26 18:23:00,SystemResetWarning,0839.1,5.01,000.00,029.5,025.9,000.0,037.9,030.2,34.5,-000.4,0013.47,0009.57,0008.97
2023-08-26 18:24:00,SystemResetWarning,0838.9,5.00,000.00,029.6,026.2,000.0,037.9,030.3,35.7,-000.2,0013.47,0009.51,0008.94
2023-08-26 18:25:00,SystemResetWarning,0839.1,5.01,000.00,029.8,026.5,000.0,037.9,030.4,35.7,-000.1,0013.65,0009.48,0008.92
2023-08-26 18:26:00,SystemResetWarning,0839.1,4.99,000.00,030.2,026.7,000.0,037.9,030.6,34.0,-000.2,0014.07,0009.49,0008.90
2023-08-26 18:27:00,SystemResetWarning,0839.1,4.99,000.00,030.4,026.9,000.0,038.0,030.7,33.2,-000.1,0013.94,0009.46,0008.88
2023-08-26 18:28:00,SystemResetWarning,0839.1,5.01,000.00,030.5,027.1,000.0,038.0,030.7,33.2,-000.0,0013.93,0009.45,0008.85
2023-08-26 18:29:00,SystemResetWarning,0839.1,5.01,000.00,030.6,027.3,000.0,038.1,030.7,32.6,0000.4,0013.85,0009.40,0008.80
2023-08-26 18:30:00,SystemResetWarning,0839.1,5.00,000.00,030.6,027.4,000.0,038.2,030.8,32.5,0000.2,0013.83,0009.37,0008.77
2023-08-26 18:31:00,SystemResetWarning,0839.0,5.00,000.00,030.7,027.5,000.0,038.3,030.8,32.3,0000.2,0013.85,0009.39,0008.77
2023-08-26 18:32:00,SystemResetWarning,0839.0,5.00,000.00,030.7,027.6,000.0,038.4,030.9,32.3,0000.1,0013.98,0009.41,0008.80
2023-08-26 18:33:00,SystemResetWarning,0839.1,4.98,000.00,030.7,026.7,000.0,038.3,030.7,32.0,0000.1,0013.79,0009.37,0008.81
2023-08-26 18:34:00,SystemResetWarning,0838.9,5.00,000.00,030.7,025.1,000.0,038.2,030.4,31.6,0000.3,0013.59,0009.43,0008.87
2023-08-26 18:35:00,SystemResetWarning,0838.9,5.00,000.00,030.6,024.5,000.0,038.2,030.3,32.2,0000.0,0013.63,0009.50,0008.92
2023-08-26 18:36:00,SystemResetWarning,0838.9,5.01,000.00,030.4,024.6,000.0,038.2,030.1,32.4,0000.1,0013.44,0009.55,0008.96
2023-08-26 18:37:00,SystemResetWarning,0838.9,5.01,000.00,030.3,024.9,000.0,038.3,030.1,33.0,-000.2,0012.96,0009.56,0009.00
2023-08-26 18:38:00,SystemResetWarning,0838.9,4.99,000.00,030.2,025.4,000.0,038.3,030.2,33.4,-000.2,0013.07,0009.63,0009.06
2023-08-26 18:39:00,SystemResetWarning,0838.9,5.00,000.00,030.1,025.8,000.0,038.3,030.2,33.0,-000.3,0013.80,0009.67,0009.10
2023-08-26 18:40:00,SystemResetWarning,0838.8,5.00,000.00,030.1,026.1,000.0,038.3,030.3,33.1,-000.8,0014.09,0009.74,0009.15
2023-08-26 18:41:00,SystemResetWarning,0838.9,5.00,000.00,030.1,026.5,000.0,038.3,030.4,33.4,-000.8,0014.10,0009.80,0009.20
2023-08-26 18:42:00,SystemResetWarning,0838.8,5.00,000.00,030.0,026.7,000.0,038.3,030.5,33.8,-000.5,0014.09,0009.84,0009.26
2023-08-26 18:43:00,SystemResetWarning,0838.8,5.00,000.00,030.0,026.9,000.0,038.3,030.5,33.4,-000.5,0014.06,0009.88,0009.29
2023-08-26 18:44:00,SystemResetWarning,0838.8,5.00,000.00,030.0,027.1,000.0,038.3,030.6,33.4,-000.8,0014.25,0009.93,0009.32
2023-08-26 18:45:00,SystemResetWarning,0838.8,5.00,000.00,030.0,027.3,000.0,038.3,030.6,34.0,-001.0,0014.27,0009.91,0009.28
2023-08-26 18:46:00,SystemResetWarning,0838.8,5.00,000.00,030.0,027.4,000.0,038.3,030.7,34.4,-001.0,0014.11,0009.84,0009.25
2023-08-26 18:47:00,SystemResetWarning,0838.8,4.99,000.00,030.0,027.1,000.0,038.3,030.7,34.0,-001.1,0014.19,0009.85,0009.23
2023-08-26 18:48:00,SystemResetWarning,0838.8,4.99,000.00,030.0,025.6,000.0,038.1,030.4,33.8,-001.1,0014.18,0009.83,0009.20
2023-08-26 18:49:00,SystemResetWarning,0838.8,5.00,000.00,029.9,024.5,000.0,038.0,030.2,34.3,-001.1,0014.30,0009.77,0009.20
2023-08-26 18:50:00,SystemResetWarning,0838.8,5.01,000.00,029.8,024.4,000.0,037.9,030.1,34.6,-001.3,0013.78,0009.73,0009.19
2023-08-26 18:51:00,SystemResetWarning,0838.7,4.98,000.00,029.6,024.7,000.0,037.9,029.9,35.4,-001.2,0013.40,0009.70,0009.18
2023-08-26 18:52:00,SystemResetWarning,0838.7,5.02,000.00,029.6,025.2,000.0,037.9,030.1,35.4,-001.3,0013.34,0009.62,0009.13
2023-08-26 18:53:00,SystemResetWarning,0838.7,5.01,000.00,029.9,025.6,000.0,037.9,030.3,34.7,-001.5,0013.52,0009.60,0009.07
2023-08-26 18:54:00,SystemResetWarning,0838.7,4.96,000.00,030.0,025.9,000.0,038.0,030.4,34.9,-001.4,0013.44,0009.51,0009.00
2023-08-26 18:55:00,SystemResetWarning,0838.8,5.05,000.00,030.2,026.3,000.0,038.0,030.5,34.0,-001.0,0013.25,0009.44,0008.96
2023-08-26 18:56:00,SystemResetWarning,0838.7,4.96,000.00,030.3,026.6,000.0,038.0,030.5,33.6,-000.7,0013.09,0009.36,0008.91
2023-08-26 18:57:00,SystemResetWarning,0838.8,5.03,000.00,030.4,026.8,000.0,038.1,030.6,32.5,-000.7,0013.07,0009.33,0008.86
2023-08-26 18:58:00,SystemResetWarning,0838.8,4.99,000.00,030.4,027.0,000.0,038.1,030.6,32.3,-000.7,0012.88,0009.22,0008.78
2023-08-26 18:59:00,SystemResetWarning,0838.8,4.99,000.00,030.5,027.2,000.0,038.2,030.7,32.2,-000.4,0012.80,0009.14,0008.69
